Location: ??????
(38.1303°N, 24.0039°E)
Time: 12:05:45
(UTC+00:00)

ARIANE 5 R/B - Pass Details

Date: 20 June 2021
Orbit: 748 x 794 km, 98.7° (Epoch: 01 August)

Event Time Altitude Azimuth Distance (km) Brightness Sun altitude
Rises 01:15:16 0° 18° (NNE) 3,202 7.0 -16.7°
Reaches altitude 10° 01:17:36 10° 22° (NNE) 2,275 6.1 -16.4°
Maximum altitude 01:22:31 56° 101° (E) 888 3.0 -15.8°
Enters shadow 01:26:54 13° 178° (S) 2,072 4.3 -15.2°
